DMSP 5D-2 F13 DEB, 40513

Orbit data source: Space-Track

DMSP 5D-2 F13 DEB, 40513 is space debris in SSO originally from a launch on Fri, 24 Mar 1995 UTC launched from the Air Force Western Test Range (AFWTR). Debris objects in space refer to the collection of defunct objects orbiting the Earth. Examples of debris include non-operational satellites, rocket bodies, and fragments generated from explosions, collisions, or faulty payload assembly.

Loading next visibility...
Identifier
40513, 1995-015CZ
Orbit
SSO
Country
Flag of USUS
Related business
Manufacturer
Unknown
Mission
Spacecraft
Bus & Motor
Unknown
Mass
Unknown
Launch date (UTC)
1995-03-24 (31 years ago)
Launch vehicle
Unknown
Launch site
Air Force Western Test Range (AFWTR)
Object type
Payload
Rocket body
Debris
Shape & HBR
Unknown shape, 0.1 m
Radar Cross Section
Small (<0.1 m²)

Expand to show TLE details & history
Last TLE update: 2 days ago

TLE from 2 days ago
0 DMSP 5D-2 F13 DEB
1 40513U 95015CZ  25286.75804674  .00001370  00000-0  63861-3 0  9995
2 40513  98.7782 303.0477 0007884 110.0193 250.1834 14.22091333546536
Epoch: 2025-10-13T18:11Z
TLE epoch observation values (Epoch: 2025-10-13T18:11:35.238Z)
Latitude
-0°
Longitude
7.59464°
Altitude
823.132 km
Speed
7.441 km/s
True Right ascension
20h 12m 11s
True Declination
0° 00' 00"
Sunlit
Object was in daylight at epoch
Visualization orbit readout
Latitude
Unknown
Longitude
Unknown
Altitude
Unknown
Speed
Unknown
Apparent Right ascension
Unknown
Apparent Declination
Unknown
Sunlit
N/A
Visualization observer readout
Local Sidereal Time
12:49:37
Azimuth
Unknown
Elevation
Unknown
Doppler factor
Unknown
Orbital elements
Apogee altitude
821.119 km
Perigee altitude
809.776 km
Semi-major axis
7,193.585 km
Eccentricity
0.00079
Inclination
98.7782°
RAAN
303.0477°
Arg. of periapsis
110.0193°
True anomaly
250.09843°
Mean anomaly
250.1834°
Eccentric anomaly
250.14091°
Mean motion
3.55734 °/min
Orbital period
101.2 mins
BSTAR
0.00063861

Documentation

Showing up to 5 results
|